This is the latest recevied weather packets stored in our database for station/object KH6DH-13. If no packets are shown the sender has not sent any weather packets the latest 10 day(s).
| Time | Temp. | Humidity | Pressure | Rain* | Wind** | Luminosity | Snow |
|---|---|---|---|---|---|---|---|
| 1777523256 | 24.44° C | - | - | 0 mm | 1.79 m/s, 325° | - | - |
| 1777522655 | 25.56° C | - | - | 0 mm | 1.34 m/s, 38° | - | - |
| 1777522054 | 26.11° C | - | - | 0 mm | 0.89 m/s, 162° | - | - |
| 1777521453 | 26.11° C | - | - | 0 mm | 0.89 m/s, 77° | - | - |
| 1777520852 | 25.56° C | - | - | 0 mm | 0.45 m/s, 238° | - | - |
| 1777520251 | 26.11° C | - | - | 0 mm | 0.89 m/s, 46° | - | - |
| 1777519650 | 26.67° C | - | - | 0 mm | 1.79 m/s, 13° | - | - |
| 1777519049 | 27.78° C | - | - | 0 mm | 1.34 m/s, 46° | - | - |
| 1777518448 | 29.44° C | - | - | 0 mm | 1.34 m/s, 55° | - | - |
| 1777517847 | 28.33° C | - | - | 0 mm | 0.89 m/s, 49° | - | - |
| 1777517246 | 26.67° C | - | - | 0 mm | 1.79 m/s, 127° | - | - |
| 1777516645 | 27.78° C | - | - | 0 mm | 2.24 m/s, 27° | - | - |
| 1777516044 | 27.22° C | - | - | 0 mm | 0 m/s | - | - |
| 1777515443 | 26.67° C | - | - | 0 mm | 1.34 m/s, 52° | - | - |
| 1777514842 | 26.67° C | - | - | 0 mm | 1.79 m/s, 83° | - | - |
| 1777514241 | 27.22° C | - | - | 0 mm | 1.34 m/s, 77° | - | - |
| 1777513640 | 27.78° C | - | - | 0 mm | 0.89 m/s, 125° | - | - |
| 1777513039 | 27.78° C | - | - | 0 mm | 1.34 m/s, 118° | - | - |
| 1777512438 | 27.22° C | - | - | 0 mm | 2.24 m/s, 72° | - | - |
| 1777511837 | 26.67° C | - | - | 0 mm | 0 m/s | - | - |
| 1777511236 | 26.67° C | - | - | 0 mm | 0 m/s | - | - |
| 1777510635 | 27.22° C | - | - | 0 mm | 2.68 m/s, 134° | - | - |
| 1777510034 | 27.22° C | - | - | 0 mm | 1.34 m/s, 11° | - | - |
| 1777509433 | 27.22° C | - | - | 0 mm | 0.89 m/s, 62° | - | - |
| 1777508832 | 27.22° C | - | - | 0 mm | 3.13 m/s, 128° | - | - |
* Rain latest hour (hover to see other rain measurements)
** Current wind speed in m/s (hover to see current wind gust speed)